• In Russia
  • List of Countries
  • For 7 days
  • Water Temperature
  • Satellite Maps
  • Weather Map
  • Weather Widgets
  • user-avatar
    Login

    Hourly Weather Csorna

    Today, 17 July, Tuesday

    Time Temperature Precipitation Wind Pressure Humidity
    00:00 +19°C° 0 mm 2 mps 747 mmHg 72%
    01:00 +19°C° 0 mm 2 mps 747 mmHg 75%
    02:00 +18°C° 0 mm 2 mps 747 mmHg 77%
    03:00 +18°C° 0 mm 2 mps 747 mmHg 79%
    04:00 +17°C° 0 mm 3 mps 746 mmHg 81%
    05:00 +19°C° 0 mm 3 mps 747 mmHg 76%
    06:00 +20°C° 0 mm 4 mps 747 mmHg 72%
    07:00 +22°C° 0 mm 5 mps 747 mmHg 67%
    08:00 +25°C° 0 mm 5 mps 747 mmHg 60%
    09:00 +26°C° 0 mm 6 mps 747 mmHg 53%
    10:00 +28°C° 0 mm 6 mps 747 mmHg 46%
    11:00 +29°C° 0 mm 7 mps 747 mmHg 43%
    12:00 +30°C° 0 mm 7 mps 746 mmHg 41%
    13:00 +32°C° 0 mm 7 mps 746 mmHg 38%
    14:00 +30°C° 0 mm 7 mps 746 mmHg 40%
    15:00 +31°C° 0 mm 8 mps 746 mmHg 41%
    16:00 +29°C° 0 mm 8 mps 746 mmHg 43%
    17:00 +28°C° 0 mm 7 mps 746 mmHg 48%
    18:00 +27°C° 0 mm 6 mps 747 mmHg 53%
    19:00 +25°C° 0 mm 5 mps 747 mmHg 58%
    20:00 +23°C° 0 mm 5 mps 747 mmHg 61%
    21:00 +22°C° 0 mm 5 mps 747 mmHg 65%
    22:00 +21°C° 0 mm 4 mps 747 mmHg 68%
    23:00 +20°C° 0 mm 4 mps 747 mmHg 69%

    Tomorrow, 18 July, Wednesday

    Time Temperature Precipitation Wind Pressure Humidity
    00:00 +20°C° 0 mm 4 mps 747 mmHg 70%
    01:00 +20°C° 0 mm 5 mps 747 mmHg 71%
    02:00 +20°C° 0 mm 5 mps 747 mmHg 72%
    03:00 +19°C° 0 mm 5 mps 747 mmHg 72%
    04:00 +19°C° 0 mm 5 mps 747 mmHg 73%
    05:00 +20°C° 0 mm 6 mps 748 mmHg 69%
    06:00 +21°C° 0 mm 6 mps 748 mmHg 65%
    07:00 +23°C° 0 mm 7 mps 748 mmHg 62%
    08:00 +24°C° 0 mm 8 mps 748 mmHg 57%
    09:00 +26°C° 0 mm 9 mps 748 mmHg 53%
    10:00 +27°C° 0 mm 9 mps 748 mmHg 49%
    11:00 +28°C° 0.1 mm 9 mps 748 mmHg 48%
    12:00 +28°C° 0.1 mm 10 mps 748 mmHg 47%
    13:00 +29°C° 0.1 mm 10 mps 748 mmHg 46%
    14:00 +28°C° 0.1 mm 9 mps 748 mmHg 50%
    15:00 +27°C° 0.1 mm 9 mps 748 mmHg 54%
    16:00 +26°C° 0.1 mm 8 mps 748 mmHg 59%
    17:00 +24°C° 0 mm 8 mps 748 mmHg 62%
    18:00 +23°C° 0 mm 7 mps 748 mmHg 65%
    19:00 +22°C° 0 mm 7 mps 748 mmHg 68%
    20:00 +22°C° 0 mm 7 mps 749 mmHg 69%
    21:00 +21°C° 0 mm 6 mps 749 mmHg 70%
    22:00 +21°C° 0 mm 6 mps 749 mmHg 70%
    23:00 +21°C° 0 mm 6 mps 749 mmHg 71%

    Day after tomorrow, 19 July, Thursday

    Time Temperature Precipitation Wind Pressure Humidity
    00:00 +21°C° 0 mm 6 mps 749 mmHg 72%
    01:00 +21°C° 0 mm 6 mps 749 mmHg 72%
    02:00 +20°C° 0 mm 6 mps 749 mmHg 74%
    03:00 +20°C° 0 mm 5 mps 749 mmHg 75%
    04:00 +20°C° 0 mm 5 mps 749 mmHg 77%
    05:00 +21°C° 0 mm 6 mps 749 mmHg 73%
    06:00 +22°C° 0 mm 7 mps 750 mmHg 70%
    07:00 +23°C° 0 mm 7 mps 750 mmHg 66%
    08:00 +23°C° 0.1 mm 7 mps 750 mmHg 63%
    09:00 +24°C° 0.1 mm 7 mps 750 mmHg 60%
    10:00 +26°C° 0.1 mm 7 mps 750 mmHg 57%
    11:00 +26°C° 0.1 mm 7 mps 750 mmHg 57%
    12:00 +27°C° 0.1 mm 7 mps 750 mmHg 57%
    13:00 +27°C° 0.1 mm 7 mps 750 mmHg 57%
    14:00 +27°C° 0 mm 7 mps 750 mmHg 56%
    15:00 +27°C° 0 mm 7 mps 750 mmHg 56%
    16:00 +27°C° 0 mm 7 mps 750 mmHg 55%
    17:00 +27°C° 0 mm 6 mps 750 mmHg 59%
    18:00 +26°C° 0 mm 5 mps 750 mmHg 63%
    19:00 +25°C° 0 mm 4 mps 750 mmHg 66%
    20:00 +22°C° 0 mm 3 mps 750 mmHg 72%
    21:00 +21°C° 0 mm 3 mps 751 mmHg 77%
    22:00 +20°C° 0 mm 2 mps 751 mmHg 82%
    23:00 +19°C° 0 mm 2 mps 751 mmHg 83%

    20 July, Friday

    Time Temperature Precipitation Wind Pressure Humidity
    00:00 +19°C° 0 mm 2 mps 751 mmHg 83%
    01:00 +19°C° 0 mm 3 mps 751 mmHg 84%
    02:00 +18°C° 0 mm 3 mps 751 mmHg 84%
    03:00 +18°C° 0 mm 3 mps 751 mmHg 83%
    04:00 +18°C° 0 mm 3 mps 751 mmHg 83%
    05:00 +19°C° 0 mm 3 mps 751 mmHg 77%
    06:00 +21°C° 0 mm 3 mps 751 mmHg 70%
    07:00 +22°C° 0 mm 4 mps 751 mmHg 64%
    08:00 +25°C° 0 mm 4 mps 751 mmHg 58%
    09:00 +27°C° 0 mm 4 mps 751 mmHg 53%
    10:00 +29°C° 0 mm 4 mps 751 mmHg 48%
    11:00 +30°C° 0 mm 4 mps 750 mmHg 44%
    12:00 +30°C° 0 mm 4 mps 750 mmHg 41%
    13:00 +31°C° 0 mm 3 mps 750 mmHg 38%
    14:00 +33°C° 0 mm 3 mps 749 mmHg 37%
    15:00 +33°C° 0 mm 3 mps 749 mmHg 36%
    16:00 +33°C° 0 mm 3 mps 749 mmHg 36%
    17:00 +30°C° 0 mm 3 mps 749 mmHg 42%
    18:00 +29°C° 0 mm 2 mps 749 mmHg 48%
    19:00 +27°C° 0 mm 2 mps 748 mmHg 54%
    20:00 +26°C° 0 mm 2 mps 749 mmHg 59%
    21:00 +24°C° 0 mm 2 mps 749 mmHg 65%
    22:00 +23°C° 0 mm 2 mps 749 mmHg 71%
    23:00 +22°C° 0.1 mm 1 mps 749 mmHg 74%

    21 July, Saturday

    Time Temperature Precipitation Wind Pressure Humidity
    00:00 +22°C° 0.1 mm 1 mps 749 mmHg 76%
    01:00 +21°C° 0.1 mm 1 mps 749 mmHg 79%
    02:00 +21°C° 0.4 mm 1 mps 748 mmHg 80%
    03:00 +21°C° 0.4 mm 1 mps 748 mmHg 82%
    04:00 +21°C° 0.4 mm 1 mps 748 mmHg 83%
    05:00 +22°C° 0.3 mm 1 mps 748 mmHg 80%
    06:00 +23°C° 0.3 mm 1 mps 748 mmHg 77%
    07:00 +24°C° 0.3 mm 2 mps 748 mmHg 74%
    08:00 +26°C° 0.4 mm 2 mps 748 mmHg 67%
    09:00 +28°C° 0.4 mm 2 mps 748 mmHg 60%
    10:00 +29°C° 0.4 mm 2 mps 748 mmHg 54%
    11:00 +30°C° 0.6 mm 3 mps 748 mmHg 51%
    12:00 +31°C° 0.6 mm 3 mps 747 mmHg 48%
    13:00 +33°C° 0.6 mm 3 mps 747 mmHg 45%
    14:00 +31°C° 0.3 mm 3 mps 747 mmHg 49%
    15:00 +30°C° 0.3 mm 4 mps 746 mmHg 53%
    16:00 +29°C° 0.3 mm 4 mps 746 mmHg 57%
    17:00 +28°C° 3.8 mm 5 mps 746 mmHg 64%
    18:00 +26°C° 3.8 mm 5 mps 746 mmHg 72%
    19:00 +23°C° 3.8 mm 6 mps 746 mmHg 79%
    20:00 +22°C° 3.3 mm 6 mps 746 mmHg 82%
    21:00 +21°C° 3.3 mm 6 mps 746 mmHg 85%
    22:00 +20°C° 3.3 mm 5 mps 746 mmHg 88%
    23:00 +20°C° 0.1 mm 4 mps 746 mmHg 89%

    22 July, Sunday

    Time Temperature Precipitation Wind Pressure Humidity
    00:00 +20°C° 0.1 mm 4 mps 746 mmHg 90%
    01:00 +19°C° 0.1 mm 3 mps 747 mmHg 90%
    02:00 +19°C° 0.1 mm 3 mps 746 mmHg 91%
    03:00 +19°C° 0.1 mm 3 mps 746 mmHg 91%
    04:00 +19°C° 0.1 mm 3 mps 746 mmHg 91%
    05:00 +19°C° 0.1 mm 4 mps 746 mmHg 90%
    06:00 +20°C° 0.1 mm 4 mps 746 mmHg 88%
    07:00 +20°C° 0.1 mm 5 mps 746 mmHg 87%
    08:00 +21°C° 0.4 mm 5 mps 746 mmHg 86%
    09:00 +21°C° 0.4 mm 5 mps 746 mmHg 84%
    10:00 +21°C° 0.4 mm 5 mps 746 mmHg 83%
    11:00 +22°C° 0.3 mm 6 mps 747 mmHg 78%
    12:00 +23°C° 0.3 mm 6 mps 747 mmHg 73%
    13:00 +26°C° 0.3 mm 7 mps 747 mmHg 68%
    14:00 +24°C° 0.4 mm 7 mps 747 mmHg 67%
    15:00 +24°C° 0.4 mm 8 mps 747 mmHg 66%
    16:00 +24°C° 0.4 mm 9 mps 747 mmHg 65%
    17:00 +23°C° 0.1 mm 8 mps 747 mmHg 68%
    18:00 +22°C° 0.1 mm 8 mps 747 mmHg 71%
    19:00 +21°C° 0.1 mm 7 mps 747 mmHg 74%
    20:00 +21°C° 0 mm 7 mps 748 mmHg 75%
    21:00 +20°C° 0 mm 7 mps 748 mmHg 76%
    22:00 +20°C° 0 mm 7 mps 748 mmHg 77%
    23:00 +20°C° 0 mm 7 mps 748 mmHg 77%
    Show more